Temperature
18 19 19 20 19 18 18 17 18 18 18 19 18 17 18 18 18 18 18 19 19 19 19 19 19 19 19 18 18 18 18 17 17 17 17 17 17 17 17 17 16 16 16 16
18 19 19 20 20 19 19 18 18 19 18 18 17 17 17 17 17 17 18 18 18 18 19 19 19 19 18 18 18 18 17 17 17 17 17 17 17 17 17 16 16 16 16 16
16 18 19 19 19 19 19 19 18 18 18 17 16 16 15 16 16 17 17 17 18 18 18 18 18 18 18 18 18 17 17 17 17 17 16 16 16 16 16 16 16 16 16 15
15 17 17 18 19 19 19 18 18 18 17 16 15 15 15 15 16 16 16 17 17 17 17 17 17 17 17 17 17 16 16 16 16 16 16 16 16 16 16 16 15 15 15 15
14 15 17 18 18 18 18 18 17 17 16 15 14 14 14 14 15 15 15 16 16 16 16 16 16 16 16 16 16 16 16 15 15 15 15 15 15 15 15 15 15 14 14 14
14 15 16 17 17 17 17 17 17 16 15 15 15 15 14 13 14 14 14 14 15 15 15 15 15 15 15 15 15 15 15 14 14 14 15 14 14 14 14 14 14 13 13 13
14 15 15 16 16 17 17 17 16 16 15 15 14 14 13 13 13 14 14 14 14 14 14 14 14 14 15 14 14 14 14 14 14 14 14 13 13 13 13 13 13 13 12 12
13 14 15 15 15 16 15 15 15 15 15 14 13 13 13 12 12 13 13 13 13 13 13 13 13 14 14 13 13 13 13 13 13 13 13 13 13 12 12 12 12 12 11 11
13 13 14 14 14 15 15 14 14 14 14 14 13 12 12 12 12 12 12 12 12 13 12 12 12 13 13 12 12 12 12 12 12 12 12 12 12 12 12 11 11 11 11 10
12 13 13 14 14 14 15 15 15 14 14 14 13 12 12 12 12 12 12 12 12 12 12 12 12 12 12 12 12 12 12 12 12 12 11 11 11 11 11 11 10 10 10 10
12 13 13 13 13 14 14 14 14 13 13 14 13 12 12 11 11 11 11 12 12 12 11 11 11 11 11 11 11 11 11 11 11 11 11 11 10 10 10 10 9 9 9 9
13 12 12 12 13 13 14 13 13 13 12 12 13 12 12 11 11 11 11 11 11 11 11 11 11 11 11 11 11 11 11 10 10 10 10 10 10 9 9 9 8 8 8 8
13 13 12 12 12 13 13 13 13 13 12 12 12 12 12 11 11 11 11 11 11 11 11 11 11 10 10 10 10 10 10 10 10 10 9 9 9 9 8 8 7 7 7 7
13 13 12 12 12 12 12 12 12 12 12 12 12 12 11 11 11 11 11 11 11 10 10 10 10 10 10 10 10 10 10 9 9 9 9 8 8 8 7 7 7 6 6 5
13 13 12 12 12 12 12 12 11 11 11 11 11 11 11 11 11 11 11 10 10 10 10 10 10 10 9 9 9 9 9 9 8 8 8 7 7 7 6 6 6 5 5 4
12 12 12 12 12 11 12 12 11 11 11 11 11 11 11 11 11 10 10 10 10 10 10 10 9 9 9 9 9 9 8 8 8 7 7 7 6 6 5 5 4 4 4 3
12 11 11 11 11 11 11 11 11 11 11 11 11 11 11 11 10 10 10 10 10 10 9 9 9 9 8 8 8 8 8 7 7 6 6 6 5 5 4 4 3 3 3 2
13 12 12 12 12 11 11 11 11 11 11 11 11 11 11 11 10 10 10 10 10 9 9 9 8 8 8 8 7 7 7 6 6 6 5 5 4 4 3 3 2 2 2 2
12 12 12 12 12 12 12 11 11 11 11 11 11 11 11 10 10 10 10 10 9 9 9 8 8 8 7 7 7 6 6 6 5 5 4 4 3 3 3 2 2 2 1 1
12 12 12 11 12 12 11 11 11 11 11 11 11 11 10 10 10 10 9 9 9 9 8 8 7 7 7 6 6 6 5 5 4 4 4 3 3 2 2 2 2 1 1 1
11 11 11 11 11 11 11 11 11 11 11 11 10 10 10 10 10 9 9 9 9 8 8 7 7 7 6 6 5 5 5 4 4 3 3 3 2 2 2 1 1 1 0 0
11 11 11 11 11 11 11 11 11 11 10 10 10 10 10 9 9 9 9 8 8 8 7 7 7 6 6 5 5 4 4 4 3 3 2 2 2 2 1 1 1 0 0 -0
11 11 11 11 11 11 11 10 10 10 10 10 10 10 9 9 9 9 8 8 8 7 7 6 6 6 5 5 4 4 4 3 3 2 2 2 1 1 1 1 0 0 -0 -0
11 11 11 11 11 11 10 10 10 10 10 9 9 9 9 9 8 8 8 7 7 7 6 6 5 5 5 4 4 3 3 3 2 2 1 1 1 1 0 0 -0 -0 -0 -1
10 10 10 10 10 10 10 10 9 9 9 9 9 8 8 8 8 7 7 7 6 6 6 5 5 4 4 4 3 3 2 2 2 1 1 1 1 0 0 -0 -0 -1 -1 -1
10 10 10 10 10 10 9 9 9 9 9 8 8 8 8 7 7 7 6 6 6 5 5 5 4 4 3 3 3 2 2 2 1 1 1 1 0 0 -0 -0 -1 -1 -1 -1
10 10 9 9 9 9 9 9 8 8 8 8 8 7 7 7 6 6 6 5 5 5 4 4 4 3 3 3 2 2 2 1 1 1 1 0 0 -0 -0 -1 -1 -1 -1 -1
Wind_Speed
6 6 5 6 7 9 8 9 9 9 8 9 6 4 3 3 4 5 5 5 4 4 4 4 4 4 5 5 6 7 7 7 7 6 6 6 6 6 6 6 7 7 6 7
4 5 5 6 7 9 8 6 7 5 7 5 2 4 4 4 6 6 5 5 4 4 4 4 4 4 4 4 4 6 6 5 4 4 4 4 4 4 5 4 4 5 5 6
4 4 2 7 9 10 7 7 9 9 8 5 5 5 4 5 6 6 6 5 5 5 5 4 4 4 5 5 6 7 6 4 3 3 3 2 2 3 3 3 3 3 3 4
3 1 8 9 4 6 7 6 7 5 4 8 9 9 7 6 7 8 7 7 6 5 6 6 6 6 7 8 8 7 6 5 4 3 3 3 3 2 1 2 2 2 2 2
4 5 7 7 3 3 6 5 6 9 10 12 14 10 8 7 8 9 9 8 7 7 7 8 8 8 10 10 9 8 7 6 4 4 4 4 4 3 2 3 3 2 2 2
4 5 7 8 3 1 3 4 5 10 14 14 9 6 4 6 9 11 11 10 9 10 11 11 9 10 12 11 10 9 8 6 5 5 5 5 5 5 5 5 6 6 7 7
5 6 7 5 2 2 6 8 4 9 12 11 5 6 11 11 10 11 11 11 11 12 11 10 9 11 13 12 10 7 8 8 9 8 8 7 7 6 7 8 9 9 9 8
4 5 7 3 1 5 5 0 4 6 9 12 15 17 15 13 12 12 12 12 12 12 11 9 9 12 13 10 7 7 9 10 10 9 8 8 8 8 7 8 8 8 8 8
5 6 5 3 4 4 2 3 4 7 13 18 19 18 16 13 12 11 11 10 10 12 13 11 10 11 12 7 6 9 11 10 9 10 9 8 8 8 7 7 7 6 6 6
4 5 4 4 3 2 3 6 9 13 16 18 20 19 17 15 12 11 10 10 10 12 13 11 10 10 9 7 8 11 11 9 8 9 9 9 8 7 6 6 6 6 5 5
3 3 3 4 4 4 8 12 15 14 14 18 21 19 18 15 12 11 10 8 10 11 12 10 9 9 8 7 9 11 9 8 8 8 8 9 9 8 7 6 5 6 4 4
3 2 1 1 3 6 10 12 15 17 15 14 17 19 17 14 11 11 10 9 10 10 10 9 9 8 7 7 8 9 8 7 6 6 6 7 8 9 14 11 13 12 9 6
2 2 4 4 7 8 11 13 15 16 17 16 14 16 15 13 10 10 10 10 10 9 8 8 8 8 6 6 7 8 7 6 5 5 6 6 6 6 6 7 11 12 11 10
3 5 6 6 8 11 14 16 17 17 15 15 15 14 14 13 11 11 10 9 9 9 8 8 8 7 5 5 7 7 6 6 6 5 5 5 5 5 4 4 4 5 7 10
7 7 9 11 12 13 14 17 18 16 16 14 13 13 13 13 11 9 8 8 9 9 7 7 7 5 4 5 7 7 6 5 5 5 5 5 5 5 4 5 4 3 4 6
10 12 13 14 14 13 14 16 16 14 13 13 12 11 11 11 10 9 7 8 9 8 6 6 5 3 3 5 6 6 5 8 7 5 5 5 4 4 4 3 3 3 4 4
9 9 11 13 12 11 11 12 12 12 11 12 11 11 11 11 10 8 7 6 7 6 5 5 4 3 4 5 6 5 5 6 7 6 5 4 4 3 3 3 3 3 3 4
9 9 10 12 13 13 11 11 12 12 11 10 11 10 10 10 8 7 7 7 8 7 5 3 4 4 5 5 5 5 5 5 4 4 4 4 3 3 2 2 2 3 3 4
13 13 12 12 11 12 11 10 10 10 10 10 10 9 8 7 7 7 7 7 7 5 2 3 5 5 5 5 6 5 5 6 5 4 4 4 4 3 2 2 2 2 3 3
13 13 13 12 11 11 11 10 10 9 8 9 10 9 8 6 6 7 7 5 2 2 3 3 5 5 4 4 6 5 5 5 5 4 3 3 3 2 2 2 2 3 3 3
12 12 12 12 11 10 9 9 9 9 7 8 8 8 7 6 5 6 6 4 1 2 4 5 4 3 3 4 6 5 5 4 4 3 3 2 2 2 2 2 2 3 3 3
9 10 10 10 10 9 7 7 8 8 7 6 6 7 7 6 5 5 3 3 3 4 4 3 3 4 5 6 5 5 4 4 3 3 2 2 2 2 2 2 2 3 3 3
8 9 9 8 8 8 7 7 6 6 6 6 5 5 5 4 4 4 2 2 3 5 4 3 5 8 9 5 5 5 4 4 3 3 2 2 1 1 2 2 2 3 3 4
8 8 7 7 8 9 7 5 5 5 5 5 4 4 5 4 2 1 2 5 6 6 4 5 8 9 8 5 4 4 4 3 3 2 2 2 2 2 2 2 3 3 3 4
7 7 7 8 7 5 5 5 6 5 5 4 4 3 2 2 3 3 4 5 7 7 5 5 8 9 6 5 4 4 3 3 3 2 2 2 2 2 2 2 2 3 3 4
6 6 5 5 4 4 4 4 4 3 3 3 2 2 2 3 4 4 4 5 6 6 5 4 5 5 4 4 4 4 3 3 3 2 2 2 2 2 2 2 3 3 3 4
7 6 5 5 4 4 4 4 3 2 2 2 2 2 2 3 4 4 5 5 4 4 4 4 4 4 4 4 4 3 3 2 2 2 2 2 1 1 1 2 2 3 3 4
Wind_Direction
239 245 213 221 208 183 185 188 190 222 223 245 234 211 180 144 120 111 104 105 117 127 127 130 133 140 153 162 165 164 162 171 188 186 183 183 189 190 187 188 197 198 202 209
275 263 233 237 227 203 206 196 210 224 246 238 155 124 123 127 125 120 112 107 109 111 115 122 131 134 131 132 144 144 148 159 164 154 162 177 187 184 179 183 188 186 200 205
249 275 281 249 222 201 198 197 183 205 224 154 132 123 125 128 122 119 110 98 97 99 102 102 105 114 111 105 109 116 119 120 118 128 145 167 169 160 169 177 174 181 197 196
209 205 229 243 248 204 193 205 196 192 162 143 129 107 86 93 110 106 99 92 86 86 88 84 85 91 94 92 95 100 102 98 96 109 106 101 110 128 146 147 149 157 168 177
171 213 262 278 247 186 184 228 197 167 144 132 126 100 72 68 91 100 97 91 84 79 81 78 75 82 87 81 83 83 77 72 71 90 96 90 88 86 91 98 102 111 108 118
174 196 230 244 243 239 129 246 203 163 156 154 148 132 135 105 98 95 90 87 83 78 75 73 70 81 84 80 76 73 71 68 63 71 78 78 77 74 73 78 77 77 65 59
200 223 255 261 279 128 184 227 186 164 156 153 142 133 126 117 102 96 92 87 83 78 72 65 69 81 80 73 65 62 68 67 62 62 68 73 75 75 82 83 79 74 69 59
184 213 249 302 250 201 225 237 133 137 135 125 117 115 116 112 104 98 93 86 86 84 75 63 67 81 80 70 60 67 70 67 60 57 62 67 72 70 73 81 81 75 74 63
205 229 274 300 265 275 220 141 120 125 127 127 123 120 116 110 103 98 93 88 86 89 80 65 60 74 79 65 67 73 70 65 62 62 59 59 68 72 71 73 79 74 72 67
260 279 308 332 339 349 118 120 119 125 128 126 122 122 118 114 108 100 93 91 91 89 84 72 62 65 68 67 73 76 71 62 60 64 61 56 55 58 68 69 78 78 76 70
251 285 338 6 32 81 102 110 114 115 120 126 125 124 121 119 115 107 99 91 90 91 88 79 69 63 57 62 76 77 70 66 65 68 73 68 63 54 61 54 80 94 87 83
234 244 174 352 34 94 109 113 117 116 112 115 122 123 122 119 116 112 107 100 94 90 89 84 78 67 52 56 76 81 74 66 70 76 78 82 84 73 55 63 64 68 72 76
183 120 107 91 74 84 103 111 115 116 118 117 115 119 119 117 114 111 109 106 103 100 96 89 80 66 48 56 76 82 84 80 80 84 88 88 87 91 81 54 53 55 53 53
123 113 95 89 92 97 103 105 105 104 107 111 115 116 116 114 113 112 112 109 106 100 93 88 81 64 42 64 80 81 82 84 89 88 91 90 88 88 87 81 57 37 30 33
64 88 103 100 96 98 103 106 104 104 106 105 109 113 115 116 115 111 108 108 103 96 90 86 79 56 36 69 83 84 85 86 86 85 85 86 85 83 79 76 69 49 28 18
91 93 97 98 99 103 106 108 110 111 112 110 109 109 111 111 108 105 104 111 112 109 104 93 79 50 54 83 90 85 86 98 95 93 89 85 83 83 77 71 61 46 30 13
102 101 105 105 101 98 99 106 113 115 114 114 115 115 112 109 105 101 98 99 104 103 99 99 89 66 71 86 96 97 94 95 93 91 88 87 85 82 77 69 54 37 17 1
98 103 109 114 114 107 100 100 106 109 112 115 115 114 114 116 119 117 112 105 96 82 69 79 89 82 77 86 98 102 102 99 95 95 91 86 83 76 70 59 40 25 5 357
98 99 97 98 103 105 103 101 100 102 105 107 106 106 109 114 119 119 115 109 108 101 76 72 94 90 85 93 104 102 105 104 98 92 90 88 78 64 53 41 24 10 1 0
94 95 95 94 95 99 100 99 99 98 101 107 107 106 104 108 118 117 109 99 99 136 131 108 103 98 93 98 104 104 108 110 108 100 89 80 70 54 42 33 24 13 5 1
97 98 98 98 94 93 99 105 106 105 103 108 114 118 115 109 110 114 115 108 74 107 109 107 105 107 104 110 107 108 109 108 107 102 92 81 67 55 44 36 27 16 8 3
96 99 100 101 100 93 86 96 107 110 107 105 108 113 115 114 109 98 97 136 150 128 117 109 106 113 115 111 108 108 106 103 99 95 88 79 69 57 46 35 25 18 14 8
97 98 99 100 103 97 83 79 91 103 106 109 114 121 125 131 135 132 135 148 133 124 117 118 123 121 115 106 104 102 103 102 99 95 88 79 69 59 45 31 24 20 14 6
93 94 96 96 96 93 87 78 78 84 91 93 102 118 126 125 106 100 137 144 140 126 118 124 123 119 111 105 104 104 104 100 94 87 78 69 61 56 45 36 28 16 9 4
90 91 95 98 96 98 103 97 87 83 83 80 79 85 99 127 144 145 128 130 128 118 112 119 119 115 111 113 113 111 108 103 100 91 75 68 61 57 48 37 27 14 4 358
91 92 91 94 105 112 110 105 100 95 94 84 62 57 68 82 103 111 111 118 120 117 117 118 118 114 115 117 117 113 108 104 94 85 82 77 70 64 52 35 23 10 358 352
81 80 80 71 62 77 94 99 103 105 108 117 103 84 92 99 103 113 119 119 118 117 115 114 115 119 121 118 116 115 113 111 102 93 89 84 79 65 42 20 3 353 349 346
Height
1464 1460 1460 1461 1461 1464 1468 1470 1476 1470 1468 1458 1455 1456 1457 1458 1460 1461 1463 1465 1467 1470 1472 1474 1477 1479 1482 1485 1488 1491 1494 1497 1501 1504 1506 1510 1512 1515 1517 1519 1521 1523 1524 1526
1464 1457 1457 1458 1455 1457 1459 1461 1463 1462 1461 1451 1453 1455 1457 1458 1459 1461 1463 1465 1468 1470 1472 1474 1476 1478 1481 1483 1485 1488 1492 1495 1499 1501 1504 1507 1509 1511 1513 1515 1516 1518 1519 1521
1472 1461 1458 1463 1452 1451 1452 1450 1453 1458 1453 1450 1453 1455 1457 1458 1459 1461 1463 1465 1468 1470 1471 1473 1476 1478 1480 1483 1485 1488 1491 1494 1497 1499 1502 1504 1506 1507 1509 1510 1512 1513 1514 1515
1472 1468 1474 1454 1441 1440 1443 1443 1444 1445 1447 1449 1452 1455 1457 1459 1459 1461 1463 1466 1468 1470 1472 1473 1476 1478 1481 1483 1486 1488 1491 1494 1496 1498 1499 1501 1503 1504 1506 1507 1508 1509 1510 1512
1474 1472 1463 1449 1441 1440 1443 1444 1440 1442 1446 1450 1453 1456 1460 1461 1461 1462 1464 1467 1469 1471 1472 1474 1477 1479 1481 1484 1486 1489 1491 1493 1495 1497 1498 1499 1501 1502 1503 1504 1505 1506 1507 1508
1470 1469 1467 1449 1438 1437 1441 1446 1437 1438 1442 1447 1451 1458 1462 1463 1464 1464 1466 1469 1471 1473 1474 1476 1479 1481 1483 1485 1488 1490 1492 1494 1495 1496 1497 1498 1499 1500 1501 1502 1503 1504 1504 1504
1465 1464 1454 1441 1437 1437 1449 1442 1435 1436 1439 1444 1447 1453 1459 1463 1465 1467 1469 1472 1474 1475 1477 1480 1482 1483 1485 1488 1490 1493 1494 1495 1496 1497 1498 1499 1499 1500 1500 1501 1502 1503 1503 1503
1463 1463 1456 1438 1437 1438 1436 1432 1433 1436 1439 1442 1447 1453 1459 1464 1467 1470 1472 1475 1477 1479 1481 1484 1486 1487 1488 1490 1493 1495 1497 1497 1498 1499 1499 1500 1501 1501 1502 1502 1502 1503 1504 1504
1454 1451 1442 1438 1436 1434 1433 1432 1434 1436 1440 1443 1447 1454 1460 1466 1470 1474 1477 1479 1481 1483 1485 1488 1490 1491 1492 1495 1497 1498 1499 1500 1501 1501 1502 1502 1502 1503 1503 1503 1503 1504 1504 1505
1448 1442 1439 1436 1434 1433 1432 1433 1435 1439 1443 1445 1449 1456 1462 1468 1474 1477 1481 1484 1486 1487 1489 1492 1495 1496 1498 1500 1501 1501 1502 1503 1503 1504 1504 1504 1505 1505 1505 1505 1505 1505 1505 1505
1445 1442 1439 1437 1435 1434 1434 1436 1439 1443 1446 1449 1453 1459 1465 1471 1477 1481 1485 1489 1491 1492 1495 1497 1500 1501 1503 1504 1505 1505 1505 1506 1506 1506 1507 1507 1507 1507 1507 1507 1506 1506 1506 1506
1443 1441 1440 1439 1438 1437 1437 1439 1441 1445 1451 1456 1458 1463 1469 1475 1481 1485 1489 1493 1495 1498 1500 1502 1504 1505 1507 1507 1508 1508 1508 1508 1508 1508 1508 1508 1508 1508 1508 1508 1508 1507 1506 1506
1440 1439 1439 1440 1440 1440 1441 1443 1446 1451 1455 1460 1465 1469 1474 1479 1485 1490 1494 1497 1500 1502 1504 1506 1508 1509 1510 1510 1510 1510 1510 1510 1510 1510 1510 1510 1510 1510 1510 1509 1509 1507 1506 1505
1440 1440 1442 1443 1444 1445 1446 1449 1452 1457 1462 1466 1470 1476 1480 1485 1490 1494 1498 1501 1504 1506 1508 1510 1511 1512 1512 1513 1512 1512 1512 1511 1511 1511 1511 1511 1511 1511 1510 1509 1509 1507 1506 1504
1442 1442 1444 1446 1449 1451 1453 1455 1459 1463 1468 1473 1478 1482 1486 1490 1494 1499 1502 1505 1507 1509 1511 1512 1513 1514 1514 1514 1514 1513 1513 1513 1512 1512 1512 1512 1511 1511 1510 1509 1507 1506 1505 1503
1447 1448 1450 1452 1455 1458 1460 1462 1465 1470 1475 1479 1484 1488 1492 1495 1499 1503 1506 1508 1510 1512 1513 1514 1515 1515 1516 1515 1515 1514 1514 1513 1513 1513 1512 1512 1511 1510 1509 1508 1507 1505 1504 1502
1450 1453 1455 1458 1461 1464 1466 1469 1472 1476 1481 1485 1489 1493 1496 1500 1503 1506 1509 1511 1513 1514 1515 1516 1516 1516 1516 1516 1515 1515 1514 1514 1513 1513 1512 1511 1510 1510 1509 1507 1506 1505 1503 1501
1456 1458 1460 1463 1466 1469 1473 1476 1479 1483 1486 1490 1494 1497 1500 1503 1506 1508 1511 1513 1514 1515 1516 1517 1517 1517 1516 1516 1515 1514 1514 1514 1513 1513 1512 1511 1510 1509 1508 1507 1506 1504 1503 1501
1461 1464 1467 1469 1472 1475 1478 1482 1485 1488 1492 1495 1498 1501 1503 1506 1508 1510 1512 1514 1515 1515 1516 1517 1517 1517 1516 1516 1515 1514 1513 1513 1513 1512 1511 1511 1510 1509 1508 1507 1505 1504 1502 1500
1467 1470 1473 1476 1479 1481 1484 1487 1490 1493 1496 1499 1501 1504 1506 1508 1510 1511 1513 1514 1515 1516 1516 1516 1516 1516 1516 1515 1514 1514 1513 1513 1512 1512 1511 1511 1510 1509 1508 1506 1505 1503 1501 1499
1473 1476 1479 1481 1484 1487 1490 1493 1495 1497 1500 1502 1504 1505 1507 1509 1511 1512 1513 1514 1515 1515 1515 1516 1516 1515 1515 1514 1514 1514 1513 1513 1512 1512 1511 1510 1510 1508 1507 1506 1504 1503 1501 1499
1479 1481 1484 1487 1489 1492 1494 1497 1499 1500 1502 1504 1506 1507 1509 1510 1511 1512 1513 1514 1514 1514 1515 1515 1515 1514 1514 1514 1513 1513 1513 1512 1512 1511 1511 1510 1509 1508 1507 1505 1504 1502 1500 1498
1484 1487 1489 1491 1493 1496 1498 1500 1502 1503 1504 1506 1507 1508 1509 1510 1511 1512 1513 1513 1513 1514 1514 1514 1514 1514 1513 1513 1513 1513 1513 1512 1512 1511 1510 1509 1508 1507 1506 1505 1503 1501 1499 1497
1489 1491 1493 1495 1497 1499 1500 1502 1503 1505 1506 1507 1508 1509 1510 1510 1511 1512 1512 1512 1513 1513 1513 1513 1513 1513 1513 1513 1513 1513 1513 1512 1512 1511 1510 1509 1508 1507 1505 1504 1502 1500 1498 1496
1492 1494 1496 1498 1499 1501 1502 1504 1505 1506 1507 1507 1508 1509 1509 1510 1511 1511 1511 1511 1511 1512 1512 1512 1512 1512 1513 1513 1513 1513 1513 1512 1512 1511 1510 1509 1507 1506 1505 1503 1501 1499 1497 1494
1495 1497 1498 1500 1501 1502 1503 1504 1505 1506 1507 1507 1508 1508 1509 1509 1509 1509 1510 1510 1510 1511 1511 1511 1512 1512 1513 1513 1513 1513 1513 1512 1511 1510 1509 1508 1507 1505 1504 1502 1500 1498 1496 1493
1497 1498 1500 1501 1502 1503 1504 1504 1505 1506 1506 1507 1507 1508 1508 1508 1508 1509 1509 1509 1510 1510 1511 1511 1512 1512 1513 1513 1513 1513 1513 1512 1511 1510 1509 1508 1506 1505 1503 1502 1500 1498 1495 1493